SCP
0 0 0 0 0 0 0 0 0 0 0 0 0 0 0 0 0 0 0 0 0 0 0 0 0 0 0 0 0 0 0 0 0 0 0 0 0 0 0 0 0 0 0
0 0 0 0 0 0 0 0 0 0 0 0 0 0 0 0 0 0 0 0 0 0 0 0 0 0 0 0 0 0 0 0 0 0 0 0 0 0 0 0 0 0 0
0 0 0 0 0 0 0 0 0 0 0 0 0 0 0 0 0 0 0 0 0 0 0 0 0 0 0 0 0 0 0 0 0 0 0 0 0 0 0 0 0 0 0
0 0 0 0 0 0 0 0 0 0 0 0 0 0 0 0 0 0 0 0 0 0 0 0 0 0 0 0 0 0 0 0 0 0 0 0 0 0 0 0 0 0 0
0 0 0 0 0 0 0 0 0 0 0 0 0 0 0 0 0 0 0 0 0 0 0 0 0 0 0 0 0 0 0 0 0 0 0 0 0 0 0 0 0 0 0
0 0 0 0 0 0 0 0 0 0 0 0 0 0 0 0 0 0 0 0 0 0 0 0 0 0 0 0 0 0 0 0 0 0 0 0 0 0 0 0 0 0 0
0 0 0 0 0 0 0 0 0 0 0 0 0 0 0 0 0 0 0 0 0 0 0 0 0 0 0 0 0 0 0 0 0 0 0 0 0 0 0 0 0 0 0
0 0 0 0 0 0 0 0 0 0 0 0 0 0 0 -0 -0 0 0 0 0 0 0 0 0 0 0 0 0 0 0 0 0 0 0 0 0 0 0 0 0 0 0
0 0 0 0 0 0 0 0 0 0 0 0 0 0 0 -0 -0 -0 0 0 0 0 0 0 0 0 0 0 0 0 0 0 0 0 0 0 0 0 0 0 0 0 0
0 0 0 0 0 0 0 0 0 0 0 0 0 0 0 0 0 0 0 0 0 0 0 0 0 0 0 0 0 0 0 0 0 0 0 0 0 0 0 0 0 0 0
0 0 0 0 0 0 0 0 0 0 0 0 0 0 0 0 0 0 0 0 0 0 0 0 0 0 0 0 0 0 0 0 0 0 0 0 0 0 0 0 0 0 0
0 0 0 0 0 0 0 0 0 0 0 0 0 0 0 0 0 0 0 0 0 0 0 0 0 0 0 0 0 0 0 0 0 0 0 0 0 0 0 0 0 0 0
0 0 0 0 0 0 0 0 0 0 0 0 0 0 0 0 0 0 0 0 0 0 0 0 0 0 0 0 0 0 0 0 0 0 0 0 0 0 0 0 0 0 0
0 0 0 0 0 0 0 0 0 0 0 0 0 0 0 0 0 0 0 0 0 0 0 0 0 0 0 0 0 0 0 0 0 0 0 0 0 0 0 0 0 0 0
0 0 0 0 0 0 0 0 0 0 0 0 0 0 0 0 0 0 0 0 0 0 0 0 0 0 0 0 0 0 0 0 0 0 0 0 0 0 0 0 0 0 0
0 0 0 0 0 0 0 0 0 0 0 0 0 0 0 0 0 0 0 0 0 0 0 0 0 0 0 0 0 0 0 0 0 0 0 0 0 0 0 0 0 0 0
0 0 0 0 0 0 0 0 0 0 0 0 0 0 0 0 0 0 0 0 0 0 0 0 0 0 0 0 0 0 0 0 0 0 0 0 0 0 0 0 0 0 0
0 0 0 0 0 0 0 0 0 0 0 0 0 0 0 0 0 0 0 0 0 0 0 0 0 0 0 0 0 0 0 0 0 0 0 0 0 0 0 0 0 0 0
0 0 0 0 0 0 0 0 0 0 0 0 0 0 0 0 0 0 0 0 0 0 0 0 0 0 0 0 0 0 0 0 0 0 0 0 0 0 0 0 0 0 0
0 0 0 0 0 0 0 0 0 0 0 0 0 0 0 0 0 0 0 0 0 0 0 0 0 0 0 0 0 0 0 0 0 0 0 0 0 0 0 0 0 0 0
0 0 0 0 0 0 0 0 0 0 0 0 0 0 0 0 0 0 0 0 0 0 0 0 0 0 0 0 0 0 0 0 0 0 0 0 0 0 0 0 0 0 0
0 0 0 0 0 0 0 0 0 0 0 0 0 0 0 0 0 0 0 0 0 0 0 0 0 0 0 0 0 0 0 0 0 0 0 0 0 0 0 0 0 0 0
0 0 0 0 0 0 0 0 0 0 0 0 0 0 0 0 0 0 0 0 0 0 0 0 0 0 0 0 0 0 0 0 0 0 0 0 0 0 0 0 0 0 0
0 0 0 0 0 0 0 0 0 0 0 0 0 0 0 0 0 0 0 0 0 0 0 0 0 0 0 0 0 0 0 0 0 0 0 0 0 0 0 0 0 0 0
0 0 0 0 0 0 0 0 0 0 0 0 0 0 0 0 0 0 0 0 0 0 0 0 0 0 0 0 0 0 0 0 0 0 0 0 0 0 0 0 0 0 0
0 0 0 0 0 0 0 0 0 0 0 0 0 0 0 0 0 0 0 0 0 0 0 0 0 0 0 0 0 0 0 0 0 0 0 0 0 0 0 0 0 0 0
Wind_Speed
3 2 2 2 2 2 2 2 3 3 4 4 4 4 4 4 4 3 3 7 7 7 7 7 7 8 8 8 8 8 7 7 7 7 7 6 6 6 7 7 7 7 7
2 3 2 2 2 2 2 2 3 3 3 3 4 4 4 3 3 3 3 4 7 7 7 7 7 7 7 7 7 7 7 6 7 7 6 6 6 5 5 5 6 6 7
3 2 2 2 1 1 2 2 3 3 3 3 4 3 3 3 3 4 3 3 3 7 7 7 7 7 7 6 6 6 6 5 5 5 5 5 5 5 5 4 5 5 6
2 2 2 2 1 2 2 2 2 2 3 3 2 2 3 3 4 4 4 4 3 4 6 8 8 7 7 6 5 5 5 5 5 5 4 4 4 4 4 5 4 4 4
2 2 2 2 2 2 2 2 2 2 3 3 2 2 2 3 3 3 4 4 4 4 4 7 9 8 7 6 5 4 4 5 5 5 5 4 4 4 4 4 4 4 4
2 2 2 2 2 2 2 2 2 2 2 2 3 3 2 2 3 3 3 3 3 5 5 5 4 6 8 8 6 5 4 4 5 5 5 4 4 4 4 4 4 5 4
3 3 2 2 2 2 2 2 2 3 2 2 2 2 2 3 3 2 2 2 3 4 4 4 4 3 4 8 8 7 6 4 4 4 4 4 3 3 3 3 3 4 5
2 3 3 2 2 2 3 2 2 2 1 1 2 2 1 2 2 2 2 2 2 2 3 4 4 4 3 3 5 8 7 6 5 3 3 3 3 1 1 1 2 2 3
1 2 3 3 2 2 3 3 3 3 2 1 1 2 3 3 1 1 2 2 2 2 2 2 3 4 4 3 3 6 7 6 6 5 3 3 3 1 1 1 1 2 2
1 1 2 3 3 2 3 3 2 1 3 2 1 0 1 3 3 1 1 1 2 1 2 2 2 2 3 3 4 7 7 6 6 6 5 4 4 2 1 2 1 1 2
0 0 1 2 2 2 3 3 2 2 2 2 2 1 1 1 2 2 1 1 1 1 1 1 1 1 2 3 3 5 6 6 6 6 6 6 5 4 2 2 1 1 2
1 1 1 1 2 2 3 3 3 3 2 2 2 2 2 2 2 2 2 2 1 1 1 1 1 1 1 2 3 5 6 6 6 6 5 6 7 6 5 4 3 2 2
1 2 1 2 2 2 2 2 2 2 2 2 2 2 2 2 2 2 2 2 1 1 1 1 1 0 1 1 2 5 5 6 6 6 5 5 6 6 7 7 5 4 3
2 2 2 2 2 2 2 2 2 3 2 2 2 2 2 1 2 2 3 3 1 1 1 2 1 1 1 1 2 4 3 5 5 5 5 5 6 6 6 6 6 5 3
1 1 2 2 2 1 2 2 2 3 3 3 3 2 2 1 2 1 2 3 4 3 3 3 2 1 1 1 2 1 2 4 5 5 5 5 5 5 5 5 6 5 4
1 1 2 2 2 2 2 2 2 2 3 3 2 3 2 1 1 1 2 2 2 3 3 2 2 2 1 1 2 1 2 5 4 5 5 5 5 5 5 5 5 5 4
2 2 2 2 3 2 2 2 2 2 3 3 2 3 3 1 1 1 1 1 1 2 2 2 1 1 1 1 2 2 2 2 2 5 5 5 5 5 5 4 5 5 5
3 3 3 3 3 3 3 3 3 3 3 4 4 3 3 2 2 2 2 2 2 2 2 3 1 1 2 2 2 2 2 2 2 5 5 6 5 5 5 5 5 5 5
3 3 3 3 3 3 3 4 4 4 4 4 4 4 4 3 3 2 2 2 2 2 1 2 2 1 1 1 1 2 2 2 3 4 5 5 6 6 6 6 6 6 6
3 4 3 4 4 4 4 4 4 4 4 4 4 4 4 5 5 4 3 3 2 2 2 2 1 1 1 1 1 2 2 2 3 3 4 5 6 7 7 7 7 6 6
4 4 4 4 4 3 4 4 4 4 4 4 4 4 4 5 6 5 4 3 3 3 2 2 2 2 2 2 2 2 3 2 3 2 2 3 3 3 4 7 7 7 7
4 3 4 4 4 4 6 7 5 4 4 5 5 4 4 5 6 8 8 7 6 5 4 4 3 4 4 3 2 2 2 2 3 2 2 3 2 3 3 3 8 9 8
3 3 4 4 5 5 8 8 8 5 4 5 5 4 4 4 5 4 6 8 8 9 9 5 5 5 5 4 4 3 4 4 4 2 2 4 2 4 4 5 9 9 8
3 3 4 4 4 5 8 9 9 5 4 5 5 5 5 4 5 5 5 5 5 6 7 5 5 5 5 5 5 5 5 4 3 3 3 4 3 3 4 3 8 9 8
2 3 3 4 4 5 8 9 8 3 4 5 5 5 6 5 9 9 6 5 5 5 8 10 9 8 9 9 6 3 3 3 4 3 2 3 2 3 3 3 4 7 7
3 3 3 3 4 4 8 9 8 3 4 4 4 5 8 8 10 10 6 5 6 5 4 5 6 6 5 6 8 5 4 4 3 3 3 3 2 1 3 2 2 2 3
Wind_Direction
121 115 105 88 78 79 88 85 75 71 67 61 65 74 71 64 58 48 30 42 49 51 60 71 76 77 78 77 76 76 69 68 69 71 75 77 77 74 72 71 71 69 66
132 132 119 105 94 92 90 99 98 90 79 70 65 69 73 69 61 54 43 34 39 46 54 65 67 70 74 75 76 76 70 64 63 66 69 71 74 75 76 75 74 71 67
135 134 128 117 108 95 87 86 85 87 85 74 64 62 66 63 64 57 49 40 28 33 45 57 60 62 64 69 71 73 69 63 60 61 66 70 73 73 71 75 77 72 68
125 125 124 119 115 105 101 101 92 93 86 79 65 49 52 60 62 58 54 45 35 27 30 44 48 51 53 59 62 68 70 66 64 57 56 61 65 64 62 59 67 72 68
117 122 121 121 116 110 103 111 101 108 110 97 87 63 46 52 57 60 55 47 41 37 30 32 37 40 39 44 53 56 62 65 63 61 57 57 60 61 61 56 53 61 65
131 129 122 116 117 114 101 105 113 92 111 118 98 69 44 44 56 59 58 47 42 43 36 34 26 26 30 36 42 44 52 58 62 62 60 62 64 61 60 58 54 53 53
138 135 127 128 128 132 136 127 127 112 92 111 97 65 27 34 50 51 50 53 44 41 42 37 29 24 16 24 31 40 40 44 52 53 53 58 65 63 58 56 56 52 50
141 151 144 150 149 139 130 127 123 131 124 119 122 118 89 357 4 28 36 53 42 36 45 40 32 29 23 12 16 31 33 34 33 33 34 36 40 56 75 66 63 51 42
147 155 163 158 157 152 160 158 152 152 161 204 124 143 152 191 249 342 22 36 27 31 30 32 39 28 29 16 0 16 23 25 25 18 4 3 4 9 72 55 44 43 42
176 145 162 168 169 163 165 170 154 159 159 175 202 57 134 143 147 196 320 3 16 25 13 21 34 32 23 14 9 17 19 18 22 19 9 357 352 2 38 31 47 13 28
301 126 163 168 179 178 176 174 165 161 165 174 174 152 106 87 111 147 203 277 335 340 349 349 18 34 16 10 358 11 17 16 17 20 16 7 354 349 349 1 8 7 6
298 291 209 189 187 189 189 187 179 182 184 176 182 169 159 159 170 157 169 194 237 288 326 329 345 4 17 7 0 10 12 10 7 5 9 12 9 1 354 345 326 326 336
264 257 245 221 205 202 201 192 186 194 190 184 193 199 188 178 161 158 149 164 200 272 284 296 285 308 10 8 344 1 3 1 359 354 354 1 5 4 2 0 337 322 328
234 240 239 240 227 207 201 198 201 205 197 200 205 205 205 195 171 167 159 153 159 240 242 245 274 255 335 337 328 354 348 347 348 349 349 354 360 359 357 357 349 336 336
253 240 233 239 242 225 216 202 210 212 207 211 213 212 216 212 191 187 170 167 166 195 231 225 227 240 272 299 308 330 330 321 335 340 339 346 348 349 350 351 348 344 348
255 241 243 236 233 226 220 211 219 216 208 215 209 203 213 216 204 194 190 188 182 184 219 215 225 244 252 282 292 319 295 312 319 320 323 331 331 333 332 337 340 337 329
239 231 236 234 230 225 217 211 221 209 206 209 205 195 208 199 194 199 191 186 196 177 218 249 239 240 227 249 285 289 285 278 287 300 302 312 319 320 317 326 332 332 332
236 232 230 231 231 229 218 211 218 215 209 212 212 201 209 201 199 201 193 201 206 199 195 233 254 241 238 239 247 263 281 285 278 288 292 297 302 307 311 314 316 318 322
237 238 231 231 232 226 218 215 215 216 215 215 212 210 209 196 206 207 204 208 209 213 191 204 241 252 252 245 253 272 275 277 282 287 286 288 295 296 298 298 300 301 305
229 231 233 234 237 235 228 221 219 216 217 220 219 217 213 206 207 204 212 212 205 198 190 196 226 241 240 236 215 247 274 261 274 287 277 282 291 293 292 289 289 292 292
233 231 231 234 236 233 229 221 222 220 217 223 226 225 224 227 226 218 220 209 203 204 204 211 223 232 233 218 227 226 252 268 267 263 264 273 281 280 283 284 282 278 274
235 229 226 230 234 239 244 235 229 219 220 221 227 232 235 234 239 240 240 234 220 213 214 217 224 228 233 232 231 233 239 257 269 242 236 266 262 267 269 263 271 274 271
235 237 234 230 235 244 250 245 241 227 219 221 223 226 238 240 238 237 246 248 245 242 236 226 226 229 225 220 218 231 233 239 251 245 246 267 259 264 267 272 270 269 269
235 239 245 241 242 251 253 252 249 237 225 224 223 221 225 230 233 232 233 239 241 243 243 236 230 234 234 220 217 226 230 245 264 247 218 252 255 260 273 268 271 270 273
241 242 247 244 247 256 256 256 254 240 239 239 235 229 226 226 239 242 234 233 244 251 252 247 245 245 246 246 234 221 219 233 261 249 211 226 250 271 273 267 269 273 281
245 249 257 250 249 255 261 260 255 241 244 247 243 236 237 238 242 245 232 224 237 245 247 257 254 251 247 244 237 222 213 227 249 252 212 208 234 259 281 271 264 278 281